Weather History for KTTA - May, 2013

Change the Weather History Date:

Tuesday, May 7, 2013

  Actual Average (KRDU) Record (KRDU)
Temperature  
Mean Temperature 59 °F 66 °F  
Max Temperature 70 °F 78 °F 92 °F (1959)
Min Temperature 48 °F 54 °F 35 °F (1970)
Degree Days  
Heating Degree Days 6 3  
Month to date heating degree days 22  
Since 1 July heating degree days 3211  
Cooling Degree Days 0 3  
Month to date cooling degree days 21  
Year to date cooling degree days 82  
Growing Degree Days 9 (Base 50)    
Moisture  
Dew Point 51 °F    
Average Humidity 80    
Maximum Humidity 99    
Minimum Humidity 40    
Precipitation  
Precipitation 0.01 in 0.09 in 1.42 in (1931)
Month to date precipitation 0.64  
Year to date precipitation 14.40  
Sea Level Pressure  
Sea Level Pressure 29.90 in    
Wind  
Wind Speed 2 mph (SSW)    
Max Wind Speed 13 mph    
Max Gust Speed 20 mph    
Visibility 8 miles    
Events Fog , Rain    
T = Trace of Precipitation, MM = Missing Value Source: NWS Daily Summary

Daily Weather History Graph

Daily Weather History Graph

Search for Another Location

Airport or City:

Trip Planner

Search our weather history database for the weather conditions in past years. The results will help you decide how hot, cold, wet, or windy it might be!

Date:

Astronomy

May. 07, 2013 Rise Set
Actual Time 6:18 AM EDT 8:08 PM EDT
Civil Twilight 5:50 AM EDT 8:35 PM EDT
Nautical Twilight 5:16 AM EDT 9:09 PM EDT
Astronomical Twilight 4:41 AM EDT 9:45 PM EDT
Moon 4:46 AM EDT (5/7) 6:09 PM EDT (5/7)
Length of Visible Light 14h 45m
Length of Day
13h 49m
Waning Crescent, 5% of the Moon is Illuminated
May 7
Waning Crescent
May 9
New
May 18
First Quarter
May 25
Full
May 31
Last Quarter

Hourly Weather History & Observations

Time (EDT) Temp. Dew Point Humidity Pressure Visibility Wind Dir Wind Speed Gust Speed Precip Events Conditions
12:15 AM 53.6 °F 52.2 °F 95% 29.88 in 1.5 mi Calm Calm - N/A   Mist
12:35 AM 52.7 °F 51.4 °F 95% 29.88 in 4.0 mi Calm Calm - N/A   Scattered Clouds
12:55 AM 51.8 °F 50.9 °F 97% 29.89 in 7.0 mi NNE 4.6 mph - N/A   Mostly Cloudy
1:15 AM 51.8 °F 50.9 °F 97% 29.89 in 5.0 mi Calm Calm - N/A   Scattered Clouds
1:35 AM 51.8 °F 50.9 °F 97% 29.88 in 2.0 mi Calm Calm - N/A   Scattered Clouds
1:55 AM 51.8 °F 50.9 °F 97% 29.88 in 1.2 mi Calm Calm - N/A   Scattered Clouds
2:15 AM 50.4 °F 49.6 °F 97% 29.87 in 0.8 mi Calm Calm - N/A   Mist
2:35 AM 50.4 °F 49.6 °F 97% 29.87 in 1.5 mi Calm Calm - N/A   Mist
2:55 AM 49.6 °F 49.1 °F 98% 29.86 in 1.5 mi Calm Calm - N/A   Mist
3:15 AM 49.1 °F 48.2 °F 97% 29.86 in 1.0 mi Calm Calm - N/A   Mist
3:35 AM 48.4 °F 47.7 °F 97% 29.86 in 2.5 mi Calm Calm - N/A   Clear
4:15 AM 48.6 °F 48.0 °F 98% 29.86 in 7.0 mi Calm Calm - N/A   Mostly Cloudy
4:35 AM 48.6 °F 47.8 °F 97% 29.86 in 5.0 mi Calm Calm - N/A   Mostly Cloudy
4:55 AM 48.9 °F 48.2 °F 97% 29.86 in 5.0 mi Calm Calm - N/A   Scattered Clouds
5:15 AM 48.4 °F 48.0 °F 99% 29.86 in 4.0 mi Calm Calm - N/A   Mostly Cloudy
5:35 AM 50.5 °F 50.0 °F 98% 29.86 in 0.5 mi Calm Calm - N/A Fog Fog
5:55 AM 50.7 °F 50.0 °F 97% 29.86 in 0.2 mi Calm Calm - N/A Fog Fog
6:15 AM 51.4 °F 50.9 °F 98% 29.87 in 0.2 mi Calm Calm - N/A Fog Fog
6:35 AM 51.3 °F 50.9 °F 99% 29.87 in 0.2 mi Calm Calm - N/A Fog Fog
6:55 AM 51.8 °F 51.3 °F 98% 29.89 in 0.2 mi Calm Calm - N/A Fog Fog
7:15 AM 51.4 °F 50.9 °F 98% 29.88 in 1.2 mi Calm Calm - N/A   Overcast
7:35 AM 51.8 °F 51.1 °F 97% 29.89 in 3.0 mi Calm Calm - N/A   Mostly Cloudy
7:55 AM 53.2 °F 52.7 °F 98% 29.90 in 7.0 mi Calm Calm - N/A   Scattered Clouds
8:15 AM 54.1 °F 53.6 °F 98% 29.90 in 10.0 mi Calm Calm - N/A   Clear
8:35 AM 54.7 °F 54.1 °F 98% 29.90 in 10.0 mi Calm Calm - N/A   Scattered Clouds
8:55 AM 55.4 °F 54.9 °F 98% 29.91 in 10.0 mi Calm Calm - N/A   Overcast
9:15 AM 55.8 °F 55.4 °F 99% 29.91 in 10.0 mi Calm Calm - N/A   Overcast
9:35 AM 56.5 °F 55.8 °F 97% 29.92 in 10.0 mi Calm Calm - N/A   Mostly Cloudy
9:55 AM 57.4 °F 56.7 °F 97% 29.92 in 10.0 mi SSW 3.5 mph - N/A   Mostly Cloudy
10:15 AM 58.5 °F 57.6 °F 97% 29.93 in 10.0 mi Calm Calm - N/A   Mostly Cloudy
10:35 AM 59.0 °F 57.9 °F 96% 29.93 in 10.0 mi Calm Calm - N/A   Overcast
11:15 AM 63.9 °F 55.6 °F 74% 29.93 in 10.0 mi SW 4.6 mph - N/A   Unknown
11:35 AM 63.7 °F 55.6 °F 75% 29.93 in 10.0 mi WSW 4.6 mph - N/A   Scattered Clouds
11:55 AM 64.0 °F 53.6 °F 69% 29.93 in 10.0 mi WSW 5.8 mph - N/A   Clear
12:15 PM 64.0 °F 52.5 °F 66% 29.93 in 10.0 mi SW 4.6 mph - N/A   Scattered Clouds
12:35 PM 66.9 °F 51.6 °F 58% 29.92 in 10.0 mi SSE 6.9 mph - N/A   Scattered Clouds
12:55 PM 66.7 °F 47.7 °F 50% 29.92 in 10.0 mi SW 9.2 mph - N/A   Scattered Clouds
1:15 PM 68.0 °F 47.8 °F 48% 29.91 in 10.0 mi SSE 3.5 mph - N/A   Mostly Cloudy
1:35 PM 68.2 °F 46.9 °F 47% 29.91 in 10.0 mi SSW 10.4 mph - N/A   Scattered Clouds
1:55 PM 69.3 °F 46.4 °F 44% 29.91 in 10.0 mi SSW 9.2 mph 17.3 mph N/A   Scattered Clouds
2:15 PM 69.8 °F 45.5 °F 42% 29.90 in 10.0 mi SSW 5.8 mph - N/A   Scattered Clouds
2:35 PM 70.5 °F 45.1 °F 40% 29.89 in 10.0 mi SSW 6.9 mph - N/A   Scattered Clouds
2:55 PM 70.0 °F 44.6 °F 40% 29.88 in 10.0 mi WSW 4.6 mph - N/A   Scattered Clouds
3:15 PM 70.9 °F 45.9 °F 41% 29.88 in 10.0 mi South 4.6 mph - N/A   Scattered Clouds
3:35 PM 70.5 °F 46.4 °F 42% 29.87 in 10.0 mi South 4.6 mph - N/A   Mostly Cloudy
3:55 PM 70.3 °F 47.5 °F 44% 29.87 in 10.0 mi SW 4.6 mph - N/A   Mostly Cloudy
4:15 PM 69.3 °F 48.2 °F 47% 29.88 in 10.0 mi South 11.5 mph - N/A   Mostly Cloudy
4:35 PM 64.4 °F 54.5 °F 70% 29.89 in 7.0 mi SW 6.9 mph - N/A Rain Light Rain
4:55 PM 65.8 °F 53.4 °F 64% 29.88 in 10.0 mi SSW 6.9 mph - 0.01 in   Mostly Cloudy
5:15 PM 66.9 °F 52.5 °F 60% 29.89 in 10.0 mi South 6.9 mph - N/A   Scattered Clouds
5:35 PM 65.5 °F 50.4 °F 58% 29.89 in 10.0 mi SSW 12.7 mph - N/A   Mostly Cloudy
5:55 PM 64.6 °F 49.5 °F 58% 29.90 in 10.0 mi SSW 9.2 mph 19.6 mph N/A   Mostly Cloudy
6:15 PM 63.5 °F 49.5 °F 60% 29.90 in 10.0 mi SSW 5.8 mph - N/A   Scattered Clouds
6:35 PM 63.5 °F 50.4 °F 62% 29.90 in 10.0 mi SW 4.6 mph - N/A   Clear
6:55 PM 65.5 °F 51.3 °F 60% 29.89 in 10.0 mi SSW 5.8 mph - N/A   Clear
7:15 PM 65.1 °F 50.2 °F 58% 29.90 in 10.0 mi SW 6.9 mph - N/A   Clear
7:35 PM 63.5 °F 49.6 °F 61% 29.90 in 10.0 mi SW 3.5 mph - N/A   Clear
7:55 PM 61.2 °F 51.4 °F 70% 29.91 in 10.0 mi Calm Calm - N/A   Clear
8:15 PM 58.3 °F 52.7 °F 82% 29.91 in 10.0 mi Calm Calm - N/A   Clear
8:35 PM 56.1 °F 52.3 °F 87% 29.92 in 10.0 mi Calm Calm - N/A   Clear
8:55 PM 55.4 °F 52.5 °F 90% 29.92 in 10.0 mi Calm Calm - N/A   Clear
9:15 PM 54.5 °F 51.8 °F 91% 29.93 in 10.0 mi Calm Calm - N/A   Clear
9:35 PM 55.6 °F 52.3 °F 89% 29.95 in 10.0 mi Calm Calm - N/A   Clear
9:55 PM 54.5 °F 52.0 °F 91% 29.95 in 10.0 mi SW 3.5 mph - N/A   Clear
10:15 PM 53.8 °F 51.1 °F 91% 29.95 in 10.0 mi Calm Calm - N/A   Clear
10:35 PM 53.4 °F 51.1 °F 92% 29.95 in 10.0 mi Calm Calm - N/A   Clear
10:55 PM 53.8 °F 52.0 °F 94% 29.96 in 10.0 mi Calm Calm - N/A   Scattered Clouds
11:15 PM 53.4 °F 51.6 °F 94% 29.96 in 10.0 mi Calm Calm - N/A   Scattered Clouds
11:35 PM 52.5 °F 50.9 °F 94% 29.96 in 10.0 mi Calm Calm - N/A   Clear
11:55 PM 52.3 °F 51.1 °F 95% 29.96 in 7.0 mi Calm Calm - N/A   Scattered Clouds